Weather History for TTPP - October, 2012

Change the Weather History Date:

Sunday, October 21, 2012

  Actual Average (TTCP) Record (TTCP)
Temperature  
Mean Temperature 84 °F -  
Max Temperature 94 °F 86 °F - (-1)
Min Temperature 74 °F 73 °F - (-1)
Cooling Degree Days 19    
Growing Degree Days 34 (Base 50)    
Moisture  
Dew Point 75 °F    
Average Humidity 77    
Maximum Humidity 100    
Minimum Humidity 46    
Precipitation  
Precipitation 0.00 in 0.29 in - ()
Sea Level Pressure  
Sea Level Pressure 29.81 in    
Wind  
Wind Speed 4 mph ()    
Max Wind Speed 16 mph    
Max Gust Speed -    
Visibility 8.1 miles    
Events      
Averages and records for this station are not official NWS values.
T = Trace of Precipitation, MM = Missing Value Source: Averaged Metar Reports

Daily Weather History Graph

Daily Weather History Graph

Search for Another Location

Airport or City:

Trip Planner

Search our weather history database for the weather conditions in past years. The results will help you decide how hot, cold, wet, or windy it might be!

Date:

Astronomy

Oct. 21, 2012 Rise Set
Actual Time 5:54 AM AST 5:44 PM AST
Civil Twilight 5:33 AM AST 6:06 PM AST
Nautical Twilight 5:08 AM AST 6:31 PM AST
Astronomical Twilight 4:43 AM AST 6:55 PM AST
Moon 11:51 AM AST (10/21) 11:50 PM AST (10/21)
Length of Visible Light 12h 32m
Length of Day
11h 50m
Waxing Crescent, 45% of the Moon is Illuminated
Oct 21
Waxing Crescent
Oct 21
First Quarter
Oct 29
Full
Nov 6
Last Quarter
Nov 13
New

Hourly Weather History & Observations

Time (AST) Temp. Heat Index Dew Point Humidity Pressure Visibility Wind Dir Wind Speed Gust Speed Precip Events Conditions
12:00 AM 78.8 °F - 73.4 °F 83% 29.83 in 6.2 mi Calm Calm - N/A   Mostly Cloudy
1:00 AM 78.8 °F - 73.4 °F 83% 29.80 in 6.2 mi Calm Calm - N/A   Mostly Cloudy
2:00 AM 77 °F - 74 °F 88% 29.83 in 11 mi Calm Calm - -   Haze
2:00 AM 77.0 °F - 75.2 °F 94% 29.80 in 6.2 mi Calm Calm - N/A   Mostly Cloudy
3:00 AM 77.0 °F - 75.2 °F 94% 29.77 in 6.2 mi Calm Calm - N/A   Mostly Cloudy
4:00 AM 77.0 °F - 75.2 °F 94% 29.80 in 6.2 mi Calm Calm - N/A   Scattered Clouds
5:00 AM 75 °F - 74 °F 95% 29.81 in 11 mi Calm Calm - -   Haze
5:00 AM 75.2 °F - 75.2 °F 100% 29.80 in 6.2 mi Calm Calm - N/A   Partly Cloudy
6:00 AM 77.0 °F - 75.2 °F 94% 29.80 in 6.2 mi Calm Calm - N/A   Partly Cloudy
7:00 AM 80.6 °F 86.2 °F 75.2 °F 84% 29.83 in 6.2 mi Calm Calm - N/A   Scattered Clouds
8:00 AM 84 °F - 76 °F 71% 29.87 in 11 mi Calm Calm - -   Scattered Clouds
8:00 AM 84.2 °F 94.1 °F 77.0 °F 79% 29.86 in 6.2 mi Calm Calm - N/A   Partly Cloudy
9:00 AM 86.0 °F 96.9 °F 77.0 °F 74% 29.89 in 6.2 mi ESE 10.4 mph - N/A   Scattered Clouds
10:00 AM 89.6 °F 99.8 °F 75.2 °F 62% 29.86 in 6.2 mi ESE 12.7 mph - N/A   Scattered Clouds
11:00 AM 90 °F - 75 °F 53% 29.86 in 16 mi East 13.8 mph - -   Partly Cloudy
11:00 AM 89.6 °F 99.8 °F 75.2 °F 62% 29.86 in 6.2 mi East 13.8 mph - N/A   Scattered Clouds
12:00 PM 93.2 °F 105.0 °F 75.2 °F 56% 29.83 in 6.2 mi SE 13.8 mph - N/A   Scattered Clouds
1:00 PM 93.2 °F 149.9 °F 93.2 °F 100% 29.83 in 6.2 mi SSE 13.8 mph - N/A   Scattered Clouds
2:00 PM 93 °F - 74 °F 46% 29.79 in 16 mi ESE 16.1 mph - -   Partly Cloudy
2:00 PM 93.2 °F 105.0 °F 75.2 °F 56% 29.77 in 6.2 mi ESE 16.1 mph - N/A   Scattered Clouds
3:00 PM 91.4 °F 100.1 °F 73.4 °F 55% 29.77 in 6.2 mi East 13.8 mph - N/A   Scattered Clouds
4:00 PM 91.4 °F 100.1 °F 73.4 °F 55% 29.77 in 6.2 mi ESE 13.8 mph - N/A   Scattered Clouds
5:00 PM 88 °F - 75 °F 58% 29.78 in 12 mi ESE 13.8 mph - -   Scattered Clouds
5:00 PM 87.8 °F 97.6 °F 75.2 °F 66% 29.77 in 6.2 mi ESE 13.8 mph - N/A   Scattered Clouds
6:00 PM 84.2 °F 92.3 °F 75.2 °F 74% 29.77 in 6.2 mi ESE 6.9 mph - N/A   Scattered Clouds
7:00 PM 82.4 °F 89.5 °F 75.2 °F 79% 29.77 in 6.2 mi East 6.9 mph - N/A   Scattered Clouds
8:00 PM 81 °F - 76 °F 80% 29.81 in 14 mi East 5.8 mph - -   Haze
8:00 PM 80.6 °F 86.2 °F 75.2 °F 84% 29.80 in 6.2 mi East 5.8 mph - N/A   Scattered Clouds
9:00 PM 80.6 °F 86.2 °F 75.2 °F 84% 29.80 in - Calm Calm - N/A   Clear
10:00 PM 80.6 °F 86.2 °F 75.2 °F 84% 29.83 in 6.2 mi Calm Calm - N/A   Scattered Clouds
11:00 PM 79 °F - 75 °F 84% 29.83 in 16 mi Calm Calm - -   Scattered Clouds
11:00 PM 78.8 °F - 75.2 °F 89% 29.80 in 6.2 mi Calm Calm - N/A   Scattered Clouds